Location: Champseau
(45.8333°N, 1.7667°E)
Time: 04:47:38
(UTC+00:00)

COSMOS 2428 - Pass Details

Date: 18 April 2021
Orbit: 844 x 859 km, 70.9° (Epoch: 15 May)

Event Time Altitude Azimuth Distance (km) Brightness Sun altitude
Rises 20:37:50 0° 328° (NNW) 3,442 7.2 -18.3°
Reaches altitude 10° 20:40:22 10° 323° (NW) 2,502 6.3 -18.6°
Maximum altitude 20:45:49 46° 252° (WSW) 1,148 3.6 -19.3°
Enters shadow 20:49:50 18° 187° (S) 1,997 4.3 -19.9°
